Terminal Aerodrome Forecast
Issued by NWS Sterling, VA

Home | Current Version | Previous Version | Text Only | Print | Product List | Glossary On
Versions: 1 2 3 4 5 6 7 8 9 10 11 12 13 14 15 16 17 18 19 20 21 22 23 24 25 26 27 28 29 30 31 32 33
000
FTUS41 KLWX 020035 AAA
TAFIAD
TAF AMD
KIAD 020035Z 0201/0306 32008KT P6SM -SHRA OVC025
     FM020500 36005KT 5SM -SHRA BR OVC020
     FM020700 01006KT 3SM -SHRA BR OVC008
     FM021300 01006KT 5SM BR OVC008
     FM021500 01007KT P6SM OVC020
     FM030100 04005KT P6SM OVC010=

USA.gov is the U.S. government's official web portal to all federal, state and local government web resources and services.